Volver al catálogo

NOAA 17 DEB

ActivoPO
NORAD 48737·DEBRIS·🇺🇸 United States

Lanzado Jun 24, 2002 desde Vandenberg Space Force Base

Loading…

Próximos Pases (próximas 24 horas)

TLE

ActualizadoSource: Space-Track

Época: Sep 14, 2026, 11:14 UTC

1 48737U 02032BW  26257.46844275  .00166505  00000-0  40869-2 0  9990
2 48737  98.6937 339.4026 0008742 269.4440  90.5800 15.39990843289866

Sigue NOAA 17 DEB en tiempo real con AllMySat

Download on the App Store